Regional Weather Roundup
Issued by NWS Cleveland, OH

Home | Current Version | Previous Version | Text Only | Print | Product List | Glossary Off
Versions: 1 2 3 4 5 6 7 8 9 10 11 12 13 14 15 16 17 18 19 20 21 22 23 24 25 26 27 28 29 30 31 32 33 34 35 36 37 38 39 40 41 42 43 44 45 46 47 48 49 50

000
ASUS41 KCLE 302310
RWRCLE
OHIO REGIONAL WEATHER ROUNDUP
NATIONAL WEATHER SERVICE CLEVELAND, OH
700 PM EDT SAT APR 30 2016

NOTE: "FAIR" INDICATES FEW OR NO CLOUDS BELOW 12,000 FEET WITH NO
SIGNIFICANT WEATHER AND/OR OBSTRUCTIONS TO VISIBILITY.

OHZ001>008-015>018-024>027-034-035-043-044-010000-
   NORTHWEST OHIO

CITY           SKY/WX    TMP DP  RH WIND       PRES   REMARKS
DEFIANCE       LGT RAIN  49  45  86 E12G22    29.96F FOG
FINDLAY        LGT RAIN  51  46  83 E13       29.97F
TOLEDO EXPRESS LGT RAIN  47  45  93 E14       30.01F FOG
TOLEDO EXEC    LGT RAIN  47  44  90 E12       30.03F FOG
LIMA           LGT RAIN  51  50  96 E12       29.96F FOG
$$

OHZ009>014-019>023-028>033-038-089-010000-
   NORTHEAST OHIO

CITY           SKY/WX    TMP DP  RH WIND       PRES   REMARKS
CLE-HOPKINS    LGT RAIN  50  48  93 NW5       30.05R FOG
CLE-LAKEFRONT  LGT RAIN  51  49  92 N8        30.02F FOG
CUY CO. ARPT   CLOUDY    54  50  87 E9        30.02F
LORAIN-ELYRIA  RAIN      48  45  89 E9        30.03R FOG
ASHTABULA      LGT RAIN  52  47  83 NE5       30.05F
AKRON-CANTON   LGT RAIN  55  52  89 SE10      30.00F FOG
WOOSTER        LGT RAIN  53  51  93 SE8       30.01R FOG
MANSFIELD      LGT RAIN  51  51 100 E6        29.99S FOG
YOUNGSTOWN     LGT RAIN  57  53  86 E5        30.03F
$$

OHZ042-051>053-060>062-070>072-077>081-010000-
  SOUTHWEST OHIO

CITY           SKY/WX    TMP DP  RH WIND       PRES   REMARKS
CINC-COVINGTON CLOUDY    60  58  92 SE7       29.92F
CINC-LUNKEN    LGT RAIN  59  59 100 CALM      29.94F FOG
HAMILTON       LGT RAIN  60  58  92 E3        29.94F
DAYTON         LGT RAIN  55  54  96 SE12      29.94F FOG
WRIGHT-PAT AFB LGT RAIN  55  55 100 E6        29.94F FOG
DAYTON GENERAL LGT RAIN  57  55  93 CALM      29.94R
WILMINGTON     CLOUDY    56  54  93 SE8       29.93F
$$

OHZ036-037-039>041-045>050-054>059-063>069-073>076-082>088-010000-
  CENTRAL AND SOUTHEAST OHIO

CITY           SKY/WX    TMP DP  RH WIND       PRES   REMARKS
COLUMBUS       LGT RAIN  55  54  96 SE7       29.95F
OSU AIRPORT    LGT RAIN  56  54  93 SE10      29.94F
BOLTON FIELD   CLOUDY    55  54  94 SE9       29.96F
RICKENBACK AFB CLOUDY    56  54  93 SE6       29.95F
NEWARK         LGT RAIN  58  53  84 E7        29.96F
MARION         LGT RAIN  53  50  89 E8        29.98S FOG
LANCASTER      CLOUDY    57  54  89 SE12      29.96F
ZANESVILLE     LGT RAIN  59  55  87 SE9       29.98F FOG
NEW PHILLY     LGT RAIN  57  53  86 E7        30.01F
$$




USA.gov is the U.S. government's official web portal to all federal, state and local government web resources and services.